This is the latest recevied weather packets stored in our database for station/object N6RDS-8. If no packets are shown the sender has not sent any weather packets the latest 10 day(s).
| Time | Temp. | Humidity | Pressure | Rain* | Wind** | Luminosity | Snow |
|---|---|---|---|---|---|---|---|
| 1777675840 | 26.67° C | 27% | 1015 hPa | 0 mm | - | 469 W/m² | - |
| 1777675538 | 26.67° C | 27% | 1015.1 hPa | 0 mm | - | 481 W/m² | - |
| 1777675235 | 26.11° C | 28% | 1014.9 hPa | 0 mm | - | 495 W/m² | - |
| 1777674932 | 26.67° C | 28% | 1015 hPa | 0 mm | - | 510 W/m² | - |
| 1777674628 | 26.67° C | 29% | 1014.9 hPa | 0 mm | - | 521 W/m² | - |
| 1777674325 | 26.11° C | 30% | 1014.8 hPa | 0 mm | - | 532 W/m² | - |
| 1777674022 | 26.11° C | 30% | 1015.1 hPa | 0 mm | - | 546 W/m² | - |
| 1777673717 | 26.67° C | 30% | 1015.5 hPa | 0 mm | - | 566 W/m² | - |
| 1777673416 | 26.11° C | 30% | 1015.3 hPa | 0 mm | - | 569 W/m² | - |
| 1777673113 | 26.67° C | 31% | 1015.5 hPa | 0 mm | - | 583 W/m² | - |
| 1777672810 | 26.11° C | 32% | 1015.6 hPa | 0 mm | - | 595 W/m² | - |
| 1777672506 | 26.67° C | 31% | 1015.5 hPa | 0 mm | - | 606 W/m² | - |
| 1777672201 | 26.67° C | 32% | 1015.6 hPa | 0 mm | - | 616 W/m² | - |
| 1777671896 | 25.56° C | 33% | 1015.6 hPa | 0 mm | - | 627 W/m² | - |
| 1777671592 | 25.56° C | 32% | 1015.5 hPa | 0 mm | - | 637 W/m² | - |
| 1777671290 | 25.56° C | 32% | 1015.8 hPa | 0 mm | - | 647 W/m² | - |
| 1777670985 | 25.56° C | 34% | 1015.9 hPa | 0 mm | - | 658 W/m² | - |
| 1777670682 | 25.56° C | 32% | 1015.9 hPa | 0 mm | - | 666 W/m² | - |
| 1777670379 | 25.56° C | 33% | 1016.2 hPa | 0 mm | - | 675 W/m² | - |
| 1777670076 | 25.56° C | 32% | 1016 hPa | 0 mm | - | 685 W/m² | - |
| 1777669773 | 25.56° C | 32% | 1016.5 hPa | 0 mm | - | 692 W/m² | - |
| 1777669470 | 26.11° C | 32% | 1016.2 hPa | 0 mm | - | 701 W/m² | - |
| 1777669167 | 25° C | 33% | 1016.6 hPa | 0 mm | - | 709 W/m² | - |
| 1777668863 | 25° C | 34% | 1016.6 hPa | 0 mm | - | 713 W/m² | - |
| 1777668561 | 25.56° C | 35% | 1016.5 hPa | 0 mm | - | 718 W/m² | - |
* Rain latest hour (hover to see other rain measurements)
** Current wind speed in m/s (hover to see current wind gust speed)